[[{"header":{"parameterUnit":"m.s-1","parameterCategory":1,"la1":30.2991,"la2":30.254,"lo1":-89.0895,"lo2":-89.0444,"dy":0.0017,"dx":0.0017,"nx":28,"ny":28,"refTime":"2024-03-08T03:00:00:Z","depth":0,"parameterNumber":2,"parameterNumberName":"U-component_of_WINDS"},"data":[0,0,0,0,0,0,0,0,0,0,0,0,0,0,0,0,0,0,0,0,0,0,0,0,0,0,0,0,0,0,0,0,0,0,0,0,0,0,0,0,0,0,0,0,0,0,0,0,0,0,0,0,0,0,0,0,0,0,-1.6825,-1.6826,0,-1.6955,-1.6956,-1.6958,-1.7014,-1.7014,-1.7014,-1.7013,-1.7146,-1.7149,-1.7153,0,0,0,0,0,0,0,0,0,0,0,0,0,-1.6625,-1.6628,-1.6825,-1.6826,-1.6828,-1.6955,-1.6956,-1.6958,-1.7014,-1.7014,-1.7014,-1.7013,-1.7145,-1.7149,-1.7153,0,0,0,0,0,0,0,0,0,0,0,0,0,-1.6729,-1.6629,-1.6825,-1.6871,-1.6877,-1.6954,-1.6956,-1.6959,-1.7014,-1.7014,-1.7014,-1.7013,-1.7143,-1.7149,-1.7154,-1.7194,0,0,-1.7171,-1.7173,0,0,0,0,0,0,0,0,-1.6723,-1.6736,-1.6863,-1.6868,-1.6875,-1.6968,-1.6934,-1.7038,-1.7014,-1.6962,-1.7013,-1.7013,-1.7087,-1.7097,-1.7122,-1.7201,-1.7206,-1.7172,-1.7175,-1.7177,-1.7179,0,0,0,0,0,0,0,-1.6715,-1.6731,-1.6876,-1.6865,-1.6872,-1.6886,-1.69,-1.6954,-1.7024,-1.6967,-1.6971,-1.6986,-1.709,-1.7117,-1.7126,-1.7208,-1.7171,-1.7176,-1.718,-1.7182,-1.7326,-1.7327,0,0,0,0,0,0,-1.6701,-1.6724,-1.6872,-1.688,-1.6796,-1.6889,-1.6906,-1.6938,-1.7024,-1.7037,-1.6986,-1.6988,-1.7107,-1.7119,-1.713,-1.7183,-1.7177,-1.7183,-1.7186,-1.7326,-1.7327,-1.7327,0,0,0,0,0,0,-1.6696,-1.6713,-1.6867,-1.6804,-1.6824,-1.6893,-1.6929,-1.6941,-1.6968,-1.7039,-1.7051,-1.7,-1.7107,-1.7123,-1.7178,-1.7189,-1.7185,-1.719,-1.7325,-1.7326,-1.7327,-1.7289,0,0,0,0,0,0,-1.669,-1.6711,-1.6728,-1.6803,-1.6827,-1.6913,-1.693,-1.6944,-1.6977,-1.6981,-1.7055,-1.7067,-1.7108,-1.717,-1.7184,-1.7196,-1.7194,-1.7325,-1.7326,-1.7327,-1.729,-1.7289,-1.7288,0,0,0,0,0,-1.6683,-1.6712,-1.6728,-1.6746,-1.6849,-1.6913,-1.6927,-1.6973,-1.6978,-1.6995,-1.704,-1.7065,-1.7185,-1.7175,-1.7191,-1.7206,-1.7324,-1.7325,-1.7327,-1.7291,-1.7289,-1.7288,0,0,0,0,0,0,-1.6635,-1.6723,-1.6742,-1.6796,-1.6847,-1.6922,-1.6945,-1.697,-1.7021,-1.7022,-1.7078,-1.7094,-1.7145,-1.7181,-1.7168,-1.7249,-1.7257,-1.7261,-1.7224,-1.7223,-1.7222,-1.7212,-1.7199,0,0,0,0,0,-1.6631,-1.6676,-1.675,-1.6791,-1.6815,-1.6875,-1.6905,-1.6937,-1.6991,-1.7013,-1.7063,-1.7114,-1.7164,-1.7196,-1.7245,-1.7295,-1.7312,-1.7314,-1.7312,-1.7311,-1.7314,-1.7344,-1.7345,-1.7331,-1.7331,-1.7331,0,0,-1.6623,-1.6676,-1.6701,-1.6782,-1.6825,-1.687,-1.6893,-1.694,-1.6974,-1.702,-1.7076,-1.7114,-1.7175,-1.7228,-1.7254,-1.726,-1.7322,-1.7312,-1.7311,-1.7315,-1.7345,-1.7346,-1.7347,-1.7332,-1.7331,-1.7331,0,0,-1.6631,-1.6676,-1.6715,-1.6758,-1.6822,-1.6862,-1.6871,-1.6944,-1.6971,-1.7027,-1.7063,-1.7104,-1.7188,-1.7231,-1.7263,-1.7287,-1.7312,-1.7301,-1.7295,-1.7323,-1.7324,-1.7326,-1.7334,-1.7337,-1.7304,-1.7304,-1.7304,0,-1.6613,-1.6682,-1.6732,-1.6777,-1.6811,-1.6855,-1.6895,-1.6934,-1.7011,-1.7034,-1.7039,-1.7146,-1.719,-1.7254,-1.726,-1.7284,-1.7297,-1.7293,-1.732,-1.7322,-1.7324,-1.7333,-1.7336,-1.7303,-1.7303,-1.7303,-1.7303,0,-1.6657,-1.6704,-1.6728,-1.6802,-1.6839,-1.6881,-1.6936,-1.6968,-1.6996,-1.7035,-1.7092,-1.7147,-1.7209,-1.7226,-1.7254,-1.7294,-1.7295,-1.731,-1.7318,-1.7323,-1.7332,-1.7336,-1.73,-1.7301,-1.7301,-1.7302,0,0,-1.6639,-1.6739,-1.6747,-1.6781,-1.6856,-1.6893,-1.6937,-1.6997,-1.7023,-1.7075,-1.7113,-1.7183,-1.7197,-1.7234,-1.7267,-1.7291,-1.7307,-1.7303,-1.7305,-1.7302,-1.7354,-1.7342,-1.7345,-1.7323,-1.7324,-1.7325,-1.7348,0,-1.6657,-1.6738,-1.6784,-1.6845,-1.689,-1.6932,-1.697,-1.702,-1.7057,-1.71,-1.7142,-1.7191,-1.7205,-1.7228,-1.7254,-1.7299,-1.7318,-1.7298,-1.7359,-1.7361,-1.7343,-1.735,-1.7339,-1.7358,-1.7352,-1.7353,-1.7353,0,-1.669,-1.6741,-1.6807,-1.6876,-1.6897,-1.693,-1.6989,-1.7029,-1.7086,-1.7112,-1.7153,-1.7186,-1.7234,-1.7238,-1.7305,-1.729,-1.7318,-1.7344,-1.7346,-1.7353,-1.7357,-1.7358,-1.7366,-1.7368,-1.736,-1.7359,-1.7359,0,-1.667,-1.6755,-1.6806,-1.6834,-1.6916,-1.6938,-1.6973,-1.703,-1.7063,-1.7115,-1.7137,-1.7192,-1.7223,-1.7266,-1.7313,-1.7312,-1.7374,-1.7383,-1.7397,-1.7396,-1.7408,-1.7407,-1.742,-1.7426,-1.7426,-1.7426,-1.7426,0,-1.6686,-1.6725,-1.6798,-1.6829,-1.6874,-1.6926,-1.6968,-1.7007,-1.7057,-1.7096,-1.7136,-1.7172,-1.7232,-1.7275,-1.7312,-1.7361,-1.7375,-1.7397,-1.7406,-1.7393,-1.7391,-1.7412,-1.7412,-1.7427,-1.7426,-1.7426,-1.7426,0,-1.6672,-1.6723,-1.6781,-1.6853,-1.6873,-1.6902,-1.6965,-1.6996,-1.7036,-1.7085,-1.7099,-1.7161,-1.7214,-1.7266,-1.7337,-1.7362,-1.7411,-1.7423,-1.7391,-1.7397,-1.7408,-1.7406,-1.7436,-1.7442,-1.7442,-1.7442,-1.7442,0,-1.6679,-1.671,-1.6786,-1.6815,-1.6849,-1.6896,-1.693,-1.6981,-1.7015,-1.7082,-1.7106,-1.7162,-1.7209,-1.7292,-1.7343,-1.7398,-1.7412,-1.7419,-1.742,-1.7406,-1.7412,-1.741,-1.7413,-1.7417,-1.7417,-1.7417,-1.7417,0,-1.6686,-1.6709,-1.6757,-1.6813,-1.6853,-1.6899,-1.6948,-1.6969,-1.703,-1.7066,-1.7121,-1.7157,-1.723,-1.7285,-1.7345,-1.7382,-1.7409,-1.7416,-1.7422,-1.7409,-1.7389,-1.74,-1.7388,-1.7415,-1.7415,-1.7415,-1.7415,-1.7415,-1.6683,-1.6712,-1.677,-1.6821,-1.6863,-1.6907,-1.694,-1.6984,-1.7031,-1.7094,-1.7121,-1.7176,-1.7233,-1.7317,-1.7352,-1.7396,-1.7403,-1.7412,-1.7414,-1.7416,-1.7413,-1.7382,-1.7407,-1.7408,-1.7408,-1.7408,-1.7408,0,-1.6692,-1.6731,-1.6778,-1.6844,-1.6884,-1.6907,-1.6961,-1.6994,-1.7042,-1.7092,-1.7138,-1.72,-1.7254,-1.7309,-1.7366,-1.739,-1.7404,-1.7403,-1.7402,-1.741,-1.7403,-1.7393,-1.7391,-1.7391,-1.7391,-1.7391,-1.7391,-1.7391,-1.6701,-1.6752,-1.6782,-1.6853,-1.6893,-1.6947,-1.6976,-1.7017,-1.7057,-1.7125,-1.717,-1.7206,-1.7258,-1.7319,-1.7369,-1.7384,-1.7403,-1.7398,-1.7417,-1.7409,-1.7411,-1.7412,-1.7402,-1.7402,-1.7402,-1.742,-1.742,-1.742]},{"header":{"parameterUnit":"m.s-1","parameterCategory":1,"la1":30.2991,"la2":30.254,"lo1":-89.0895,"lo2":-89.0444,"dy":0.0017,"dx":0.0017,"nx":28,"ny":28,"refTime":"2024-03-08T03:00:00:Z","depth":0,"parameterNumber":3,"parameterNumberName":"V-component_of_WINDS"},"data":[0,0,0,0,0,0,0,0,0,0,0,0,0,0,0,0,0,0,0,0,0,0,0,0,0,0,0,0,0,0,0,0,0,0,0,0,0,0,0,0,0,0,0,0,0,0,0,0,0,0,0,0,0,0,0,0,0,0,5.4631,5.4632,0,5.4757,5.4758,5.4759,5.4786,5.4785,5.4784,5.4783,5.4909,5.4913,5.4917,0,0,0,0,0,0,0,0,0,0,0,0,0,5.4411,5.4415,5.4631,5.4632,5.4634,5.4756,5.4758,5.476,5.4786,5.4785,5.4784,5.4783,5.4908,5.4913,5.4918,0,0,0,0,0,0,0,0,0,0,0,0,0,5.4519,5.4416,5.463,5.4662,5.4666,5.4756,5.4758,5.476,5.4787,5.4785,5.4784,5.4783,5.4906,5.4912,5.4918,5.4985,0,0,5.4938,5.494,0,0,0,0,0,0,0,0,5.4513,5.4527,5.4656,5.466,5.4665,5.4754,5.4727,5.4835,5.4787,5.4741,5.4783,5.4782,5.4858,5.4869,5.4895,5.4991,5.4996,5.4938,5.4942,5.4945,5.4947,0,0,0,0,0,0,0,5.4505,5.4521,5.468,5.4657,5.4663,5.4669,5.4683,5.4748,5.4806,5.4745,5.4747,5.4762,5.4861,5.4889,5.4898,5.4998,5.4938,5.4944,5.4948,5.495,5.5157,5.5159,0,0,0,0,0,0,5.4492,5.4515,5.4676,5.4684,5.4584,5.4674,5.469,5.4727,5.4805,5.4816,5.4763,5.4762,5.4879,5.4891,5.4903,5.4988,5.4945,5.4951,5.4954,5.5155,5.5157,5.5159,0,0,0,0,0,0,5.4488,5.4507,5.4671,5.46,5.4622,5.4679,5.4721,5.473,5.4759,5.4819,5.4829,5.4781,5.4878,5.4894,5.4965,5.4993,5.4953,5.4959,5.5153,5.5156,5.5158,5.5158,0,0,0,0,0,0,5.4481,5.4505,5.4531,5.4601,5.4625,5.4732,5.4723,5.4734,5.477,5.4771,5.4839,5.4849,5.4878,5.4956,5.4971,5.5001,5.4964,5.5151,5.5154,5.5158,5.5156,5.5161,5.5164,0,0,0,0,0,5.4473,5.4525,5.4532,5.4552,5.466,5.4734,5.4748,5.4782,5.4772,5.4799,5.4838,5.4847,5.4987,5.4963,5.4981,5.5013,5.515,5.5154,5.5157,5.5154,5.516,5.5164,0,0,0,0,0,0,5.4455,5.4534,5.4544,5.4619,5.467,5.4738,5.4773,5.4786,5.484,5.4838,5.4877,5.4892,5.4962,5.4993,5.4965,5.5082,5.5068,5.5075,5.5059,5.5065,5.5069,5.5061,5.4969,0,0,0,0,0,5.446,5.4515,5.458,5.4641,5.4666,5.4715,5.4748,5.477,5.4824,5.4845,5.4889,5.494,5.4996,5.5031,5.5086,5.516,5.5176,5.5191,5.5195,5.5198,5.5205,5.5249,5.5257,5.5172,5.5172,5.5172,0,0,5.4471,5.4521,5.4552,5.4638,5.468,5.4736,5.4733,5.4791,5.4832,5.4853,5.4925,5.4958,5.5018,5.5092,5.5126,5.512,5.5232,5.5203,5.5205,5.521,5.5254,5.5262,5.5269,5.5175,5.5174,5.5174,0,0,5.4519,5.4562,5.4618,5.466,5.4724,5.4757,5.477,5.4837,5.4861,5.4933,5.4951,5.5,5.5095,5.5137,5.5171,5.5237,5.5248,5.5253,5.5275,5.5318,5.5325,5.5331,5.5357,5.5365,5.5259,5.5259,5.5259,0,5.4525,5.461,5.4645,5.4704,5.4742,5.4764,5.4822,5.4861,5.4938,5.4964,5.4956,5.5078,5.5118,5.5204,5.522,5.5246,5.5263,5.5247,5.5321,5.5327,5.5334,5.5359,5.5368,5.5259,5.5259,5.5259,5.5259,0,5.4614,5.4673,5.471,5.4787,5.4829,5.4886,5.4931,5.4968,5.4986,5.502,5.5094,5.5144,5.521,5.5231,5.5248,5.532,5.5315,5.5313,5.53,5.5342,5.5366,5.5376,5.526,5.526,5.526,5.526,0,0,5.4656,5.4753,5.4766,5.4802,5.4875,5.4921,5.4979,5.5045,5.5078,5.513,5.5182,5.5262,5.5262,5.53,5.5322,5.5359,5.5411,5.5354,5.5356,5.5365,5.5495,5.5498,5.5509,5.5418,5.542,5.5421,5.5492,0,5.4716,5.4823,5.4857,5.4947,5.5002,5.5025,5.5076,5.5126,5.5158,5.521,5.5245,5.5303,5.5297,5.5321,5.5358,5.5397,5.5438,5.5392,5.5467,5.5469,5.5455,5.5521,5.5524,5.5588,5.5501,5.5503,5.5504,0,5.48,5.4856,5.4952,5.502,5.5044,5.509,5.5155,5.5203,5.526,5.5281,5.5325,5.5344,5.5406,5.5388,5.5475,5.5443,5.5475,5.5498,5.5502,5.5512,5.5491,5.5536,5.5609,5.5619,5.5519,5.5517,5.5516,0,5.4825,5.4924,5.4995,5.5025,5.5104,5.5136,5.5171,5.5226,5.5265,5.532,5.5346,5.5407,5.5441,5.5488,5.5523,5.5506,5.5608,5.5592,5.5629,5.5628,5.5651,5.565,5.5733,5.5667,5.5667,5.5667,5.5666,0,5.489,5.4948,5.5008,5.5052,5.5118,5.5156,5.522,5.5255,5.5305,5.5356,5.5377,5.5425,5.5468,5.5521,5.5548,5.5618,5.5632,5.5651,5.5659,5.5652,5.5649,5.5675,5.5673,5.5669,5.5669,5.5668,5.5668,0,5.493,5.4972,5.5051,5.512,5.5139,5.5185,5.5244,5.5288,5.5321,5.5386,5.5403,5.5455,5.5519,5.5558,5.5638,5.5657,5.5734,5.5738,5.5716,5.572,5.5756,5.5753,5.5861,5.5878,5.5797,5.5798,5.5798,0,5.497,5.5016,5.5091,5.5127,5.5163,5.5221,5.5261,5.5299,5.5339,5.5409,5.5444,5.5509,5.5564,5.5664,5.5709,5.5771,5.5778,5.5812,5.5788,5.578,5.5783,5.5781,5.5787,5.5817,5.5817,5.5818,5.5818,0,5.5038,5.5057,5.5114,5.5179,5.5227,5.5279,5.5331,5.536,5.5407,5.5451,5.5518,5.556,5.5643,5.5708,5.5774,5.5809,5.5823,5.5825,5.5838,5.5832,5.5819,5.583,5.573,5.5823,5.5823,5.5822,5.5822,5.5822,5.5082,5.5125,5.5185,5.5248,5.5292,5.5341,5.5386,5.5426,5.5482,5.5554,5.5572,5.5642,5.5699,5.5789,5.5825,5.588,5.5876,5.5893,5.5898,5.5902,5.5905,5.5807,5.5892,5.5892,5.5892,5.5892,5.5892,0,5.5154,5.5194,5.5252,5.5326,5.5376,5.5384,5.5442,5.5484,5.5546,5.5598,5.5652,5.5729,5.5792,5.5842,5.5907,5.5942,5.595,5.5958,5.5957,5.5966,5.5904,5.5888,5.5951,5.5951,5.5951,5.5951,5.5951,5.5951,5.5198,5.5272,5.5298,5.5394,5.5433,5.5503,5.5536,5.5581,5.5624,5.5709,5.5763,5.5795,5.5847,5.5916,5.5975,5.5988,5.6012,5.602,5.6034,5.5976,5.597,5.5964,5.5949,5.6024,5.6024,5.6092,5.6093,5.6094]}]]